Regional Weather Roundup
Issued by NWS Portland, ME

Current Version | Previous Version | Text Only | Print | Product List | Glossary Off
Versions: 1 2 3 4 5 6 7 8 9 10 11 12 13 14 15 16 17 18 19 20 21 22 23 24 25 26 27 28 29 30 31 32 33 34 35 36 37 38 39 40 41 42 43 44 45 46 47 48 49 50
000 ASUS41 KGYX 211805 RWRGYX WEATHER ROUNDUP FOR MAINE AND NEW HAMPSHIRE NATIONAL WEATHER SERVICE GRAY ME 200 PM EDT TUE MAY 21 2019 MEZ002-005-006-010-012-015-018-020-021-024-026-027-029-211900- MAINE CITY SKY/WX TMP DP RH WIND PRES REMARKS PORTLAND PTSUNNY 62 36 37 NW21G32 29.72R 6HR MIN TEMP: 57; 6HR MAX TEMP: 63; SANFORD PTSUNNY 59 37 44 W26G37 29.76R BAR HARBOR CLOUDY 58 38 47 W15G25 29.61R WISCASSET PTSUNNY 59 35 40 W15G25 29.71R 6HR MIN TEMP: 56; 6HR MAX TEMP: 61; ROCKLAND FAIR 60 37 42 W26G38 29.63R FRYEBURG CLOUDY 56 36 47 NW8 29.77R 6HR MIN TEMP: 53; 6HR MAX TEMP: 60; LEWISTONAUBURN PTSUNNY 57 37 47 NW21G32 29.72R AUGUSTA CLOUDY 55 36 48 W16G29 29.70R 6HR MIN TEMP: 53; 6HR MAX TEMP: 59; 6HR PCP: TRACE; WATERVILLE PTSUNNY 57 38 48 NW13G25 29.66R BANGOR PTSUNNY 58 37 45 NW25 29.62R 6HR MIN TEMP: 54; 6HR MAX TEMP: 60; 6HR PCP: TRACE; GREENVILLE N/A 44 38 79 NW12G29 29.61R 6HR MIN TEMP: 44; 6HR MAX TEMP: 50; 6HR PCP: 0.01; MILLINOCKET FAIR 56 38 50 W16G31 29.60R 6HR MIN TEMP: 50; 6HR MAX TEMP: 56; HOULTON LGT RAIN 49 44 83 NW13G21 29.54S 6HR MIN TEMP: 48; 6HR MAX TEMP: 52; 6HR PCP: 0.09; PRESQUE ISLE LGT RAIN 48 41 76 NW18G28 29.57R 6HR MIN TEMP: 47; 6HR MAX TEMP: 53; 6HR PCP: 0.03; FRENCHVILLE LGT RAIN 45 39 79 NW22 29.57R 6HR MIN TEMP: 44; 6HR MAX TEMP: 47; 6HR PCP: 0.12; CARIBOU LGT RAIN 48 42 80 NW15G25 29.56R 6HR MIN TEMP: 46; 6HR MAX TEMP: 49; 6HR PCP: 0.07; $$ NHZ002-005-008-009-011-012-014-211900- NEW HAMPSHIRE CITY SKY/WX TMP DP RH WIND PRES REMARKS PORTSMOUTH MOSUNNY 66 35 32 W17G31 29.73R ROCHESTER PTSUNNY 60 35 39 NW24G37 29.76R 6HR MIN TEMP: 56; 6HR MAX TEMP: 63; NASHUA FAIR 66 35 31 NW18G32 29.78S MANCHESTER PTSUNNY 64 33 31 NW17G29 29.76F 6HR MIN TEMP: 57; 6HR MAX TEMP: 65; CONCORD FAIR 63 35 35 NW17G39 29.78R 6HR MIN TEMP: 53; 6HR MAX TEMP: 65; LACONIA CLOUDY 55 37 50 W15 29.80R PLYMOUTH PTSUNNY 55 37 50 NW15G25 29.79R BERLIN PTSUNNY 51 39 63 W9G25 29.75R 6HR MIN TEMP: 45; 6HR MAX TEMP: 52; 6HR PCP: 0.04; WHITEFIELD CLOUDY 49 41 74 W12G26 29.79R 6HR MIN TEMP: 44; 6HR MAX TEMP: 50; 6HR PCP: 0.05; JAFFREY FAIR 61 33 35 NW18G30 29.82F 6HR MIN TEMP: 53; 6HR MAX TEMP: 62; KEENE FAIR 62 36 37 W22G38 29.83S LEBANON PTSUNNY 59 35 40 NW17G35 29.83R 6HR MIN TEMP: 52; 6HR MAX TEMP: 59; 6HR PCP: TRACE; MT WASHINGTON SNOWSHWR 27 27 100 W75G96 N/A VSB 1/16WCI 4 6HR MIN TEMP: 23; 6HR MAX TEMP: 26; 6HR PCP: 0.13; $$ VTZ005-007-008-211900- VERMONT CITY SKY/WX TMP DP RH WIND PRES REMARKS ST JOHNSBURY N/A 52 38 58 MISG 29.80R MONTPELIER CLOUDY 51 37 58 NW16G30 29.88R BURLINGTON PTSUNNY 57 36 45 NW16G26 29.87S $$ MAZ007-012-024-CTZ003-RIZ002-NYZ038-NYZ072-211900- SOUTHERN NEW ENGLAND AND NY CITY SKY/WX TMP DP RH WIND PRES REMARKS BOSTON FAIR 69 35 28 W22G36 29.76S WORCESTER FAIR 62 38 40 NW26G33 29.81S NANTUCKET FAIR 65 44 46 W18 29.78F PROVIDENCE FAIR 68 40 35 W16G28 29.80F HARTFORD FAIR 67 38 34 NW23G32 29.86R ALBANY FAIR 63 40 42 NW22G31 29.94S NEW YORK CITY FAIR 68 37 32 NW21G28 29.91F $$ ANZ081-ANZ082-ANZ150-NHZ014-MEZ023>029-211900- COASTAL MARINE OBSERVATIONS STATION/POSITION TIME TEMP WIND PRES WAVE AIR SEA DIR/SP/G HT/PER (UTC) (F) (DEG/KT/KT) (MB) (FT/S) ISLE OF SHOALS 1700 58 290/ 28/ 34 1005.6F JEFFREYS LEDGE 1738 48 N/A 3/ 4 CASHES LEDGE BUO 1750 54 47 1005.2R 4/ 5 GEORGES BANK BUO 1750 49 45 260/ 16/ 17 1007.5R 4/ 6 $$ .............KEY.............. WCI - WIND CHILL TC - TEMPERATURE IN CELSIUS VSB - VISIBILITY IN MILES HX - HEAT INDEX FAIR- INDICATES FEW OR NO CLOUDS BELOW 12,000 FT, WITH NO SIGNIFICANT WEATHER AND/OR OBSTRUCTIONS TO VISIBILITY.

USA.gov is the U.S. government's official web portal to all federal, state and local government web resources and services.